Weather History for KLCI - March, 2014

Change the Weather History Date:

Monday, March 3, 2014

  Actual Average Record
Temperature  
Mean Temperature 10 °F -  
Max Temperature 19 °F 38 °F 55 °F (1991)
Min Temperature 1 °F 16 °F -7 °F (2003)
Degree Days  
Heating Degree Days 55    
Moisture  
Dew Point -5 °F    
Average Humidity 47    
Maximum Humidity 67    
Minimum Humidity 30    
Precipitation  
Precipitation 0.00 in - - ()
Sea Level Pressure  
Sea Level Pressure 30.11 in    
Wind  
Wind Speed 5 mph (West)    
Max Wind Speed 14 mph    
Max Gust Speed 20 mph    
Visibility 10 miles    
Events      
Averages and records for this station are not official NWS values.
T = Trace of Precipitation, MM = Missing Value Source: NWS Daily Summary

Daily Weather History Graph

Daily Weather History Graph

Search for Another Location

Airport or City:

Trip Planner

Search our weather history database for the weather conditions in past years. The results will help you decide how hot, cold, wet, or windy it might be!

Date:

Astronomy

Mar. 03, 2014 Rise Set
Actual Time 6:18 AM EST 5:36 PM EST
Civil Twilight 5:50 AM EST 6:05 PM EST
Nautical Twilight 5:17 AM EST 6:38 PM EST
Astronomical Twilight 4:43 AM EST 7:12 PM EST
Moon 7:19 AM EST (3/3) 8:43 PM EST (3/3)
Length of Visible Light 12h 15m
Length of Day
11h 18m
Waxing Crescent, 8% of the Moon is Illuminated
Mar 3
Waxing Crescent
Mar 8
First Quarter
Mar 16
Full
Mar 23
Last Quarter
Mar 30
New

Hourly Weather History & Observations

Time (EST) Temp. Windchill Dew Point Humidity Pressure Visibility Wind Dir Wind Speed Gust Speed Precip Events Conditions
12:15 AM 15.8 °F 7.2 °F -0.4 °F 49% 30.00 in 10.0 mi WNW 5.8 mph - N/A   Overcast
12:35 AM 15.8 °F 8.6 °F -0.4 °F 49% 30.02 in 10.0 mi NW 4.6 mph - N/A   Overcast
12:55 AM 15.8 °F 7.2 °F -0.4 °F 49% 30.01 in 10.0 mi WNW 5.8 mph - N/A   Mostly Cloudy
1:15 AM 15.8 °F 8.6 °F -0.4 °F 49% 30.01 in 10.0 mi NW 4.6 mph - N/A   Partly Cloudy
1:35 AM 14.0 °F 8.2 °F -0.4 °F 53% 30.02 in 10.0 mi WNW 3.5 mph - N/A   Mostly Cloudy
1:55 AM 14.0 °F 8.2 °F -2.2 °F 49% 30.02 in 10.0 mi WNW 3.5 mph - N/A   Scattered Clouds
2:15 AM 12.2 °F 2.9 °F -2.2 °F 53% 30.02 in 10.0 mi WNW 5.8 mph - N/A   Scattered Clouds
2:35 AM 12.2 °F 4.3 °F -2.2 °F 53% 30.01 in 10.0 mi WNW 4.6 mph - N/A   Overcast
2:55 AM 12.2 °F 6.1 °F -2.2 °F 53% 30.01 in 10.0 mi WNW 3.5 mph - N/A   Mostly Cloudy
3:15 AM 12.2 °F 4.3 °F -2.2 °F 53% 30.01 in 10.0 mi WNW 4.6 mph - N/A   Clear
3:35 AM 12.2 °F 4.3 °F -4.0 °F 48% 30.01 in 10.0 mi WNW 4.6 mph - N/A   Clear
3:55 AM 12.2 °F 2.9 °F -4.0 °F 48% 30.02 in 10.0 mi WNW 5.8 mph - N/A   Clear
4:15 AM 10.4 °F 0.8 °F -4.0 °F 52% 30.03 in 10.0 mi West 5.8 mph - N/A   Clear
4:35 AM 10.4 °F 2.2 °F -2.2 °F 57% 30.04 in 10.0 mi West 4.6 mph - N/A   Clear
4:55 AM 10.4 °F 0.8 °F -2.2 °F 57% 30.04 in 10.0 mi WSW 5.8 mph - N/A   Clear
5:15 AM 8.6 °F 0.1 °F -4.0 °F 57% 30.05 in 10.0 mi West 4.6 mph - N/A   Clear
5:35 AM 8.6 °F 2.0 °F -4.0 °F 57% 30.05 in 10.0 mi West 3.5 mph - N/A   Clear
5:55 AM 6.8 °F - -5.8 °F 56% 30.05 in 10.0 mi Calm Calm - N/A   Clear
6:15 AM 6.8 °F - -2.2 °F 67% 30.06 in 10.0 mi Calm Calm - N/A   Clear
6:35 AM 6.8 °F - -2.2 °F 67% 30.06 in 10.0 mi Calm Calm - N/A   Clear
6:55 AM 6.8 °F - -4.0 °F 61% 30.07 in 10.0 mi Calm Calm - N/A   Clear
7:15 AM 6.8 °F -0.1 °F -2.2 °F 67% 30.07 in 10.0 mi WSW 3.5 mph - N/A   Clear
7:35 AM 8.6 °F 2.0 °F -0.4 °F 67% 30.07 in 10.0 mi SSW 3.5 mph - N/A   Clear
7:55 AM 8.6 °F 2.0 °F -4.0 °F 57% 30.08 in 10.0 mi WSW 3.5 mph - N/A   Clear
8:15 AM 10.4 °F -0.4 °F -4.0 °F 52% 30.09 in 10.0 mi WSW 6.9 mph - N/A   Clear
8:35 AM 10.4 °F 2.2 °F -2.2 °F 57% 30.10 in 10.0 mi West 4.6 mph - N/A   Clear
8:55 AM 10.4 °F -0.4 °F -4.0 °F 52% 30.11 in 10.0 mi WSW 6.9 mph - N/A   Clear
9:15 AM 12.2 °F 0.7 °F -2.2 °F 53% 30.10 in 10.0 mi West 8.1 mph - N/A   Clear
9:35 AM 12.2 °F 2.9 °F -2.2 °F 53% 30.10 in 10.0 mi West 5.8 mph - N/A   Clear
9:55 AM 14.0 °F 2.0 °F -2.2 °F 49% 30.09 in 10.0 mi WNW 9.2 mph 19.6 mph N/A   Clear
10:15 AM 15.8 °F 4.2 °F -2.2 °F 45% 30.09 in 10.0 mi WNW 9.2 mph 19.6 mph N/A   Clear
10:35 AM 15.8 °F 4.2 °F -4.0 °F 41% 30.09 in 10.0 mi West 9.2 mph 17.3 mph N/A   Clear
10:55 AM 15.8 °F 3.4 °F -2.2 °F 45% 30.09 in 10.0 mi NW 10.4 mph 18.4 mph N/A   Clear
11:15 AM 15.8 °F 6.1 °F -2.2 °F 45% 30.10 in 10.0 mi West 6.9 mph 16.1 mph N/A   Clear
11:35 AM 15.8 °F 3.4 °F -2.2 °F 45% 30.10 in 10.0 mi WNW 10.4 mph 19.6 mph N/A   Clear
11:55 AM 17.6 °F 3.7 °F -4.0 °F 38% 30.10 in 10.0 mi NW 13.8 mph 17.3 mph N/A   Clear
12:15 PM 15.8 °F 2.7 °F -4.0 °F 41% 30.10 in 10.0 mi West 11.5 mph 16.1 mph N/A   Clear
12:35 PM 15.8 °F 1.4 °F -2.2 °F 45% 30.10 in 10.0 mi WSW 13.8 mph 18.4 mph N/A   Clear
12:55 PM 17.6 °F 4.3 °F -2.2 °F 42% 30.09 in 10.0 mi WNW 12.7 mph 16.1 mph N/A   Clear
1:15 PM 17.6 °F 6.4 °F -2.2 °F 42% 30.09 in 10.0 mi West 9.2 mph 16.1 mph N/A   Clear
1:35 PM 19.4 °F 7.9 °F -2.2 °F 39% 30.08 in 10.0 mi West 10.4 mph 16.1 mph N/A   Clear
1:55 PM 17.6 °F 10.7 °F -5.8 °F 35% 30.08 in 10.0 mi West 4.6 mph - N/A   Clear
2:15 PM 19.4 °F 9.5 °F -5.8 °F 33% 30.09 in 10.0 mi WNW 8.1 mph - N/A   Clear
2:35 PM 19.4 °F 7.2 °F -5.8 °F 33% 30.09 in 10.0 mi WNW 11.5 mph - N/A   Clear
2:55 PM 19.4 °F 7.2 °F -7.6 °F 30% 30.10 in 10.0 mi NW 11.5 mph 19.6 mph N/A   Clear
3:15 PM 19.4 °F 8.6 °F -7.6 °F 30% 30.10 in 10.0 mi NW 9.2 mph 19.6 mph N/A   Clear
3:35 PM 19.4 °F 7.9 °F -7.6 °F 30% 30.10 in 10.0 mi West 10.4 mph 18.4 mph N/A   Clear
3:55 PM 19.4 °F 8.6 °F -5.8 °F 33% 30.11 in 10.0 mi West 9.2 mph - N/A   Clear
4:15 PM 19.4 °F 7.9 °F -5.8 °F 33% 30.11 in 10.0 mi West 10.4 mph 17.3 mph N/A   Clear
4:35 PM 19.4 °F 6.0 °F -5.8 °F 33% 30.12 in 10.0 mi West 13.8 mph 19.6 mph N/A   Clear
4:55 PM 17.6 °F 9.3 °F -5.8 °F 35% 30.13 in 10.0 mi West 5.8 mph - N/A   Clear
5:15 PM 17.6 °F 7.3 °F -5.8 °F 35% 30.14 in 10.0 mi West 8.1 mph - N/A   Clear
5:35 PM 17.6 °F 7.3 °F -7.6 °F 32% 30.15 in 10.0 mi West 8.1 mph - N/A   Clear
5:55 PM 15.8 °F 6.1 °F -7.6 °F 35% 30.17 in 10.0 mi West 6.9 mph 16.1 mph N/A   Clear
6:15 PM 15.8 °F 4.2 °F -7.6 °F 35% 30.18 in 10.0 mi West 9.2 mph - N/A   Clear
6:35 PM 14.0 °F 1.2 °F -7.6 °F 38% 30.19 in 10.0 mi West 10.4 mph - N/A   Clear
6:55 PM 14.0 °F 8.2 °F -7.6 °F 38% 30.19 in 10.0 mi West 3.5 mph - N/A   Clear
7:15 PM 12.2 °F 6.1 °F -7.6 °F 41% 30.20 in 10.0 mi West 3.5 mph - N/A   Clear
7:35 PM 12.2 °F 6.1 °F -7.6 °F 41% 30.21 in 10.0 mi WSW 3.5 mph - N/A   Clear
7:55 PM 10.4 °F - -9.4 °F 41% 30.21 in 10.0 mi Calm Calm - N/A   Clear
8:15 PM 8.6 °F - -9.4 °F 44% 30.21 in 10.0 mi Calm Calm - N/A   Clear
8:35 PM 8.6 °F - -9.4 °F 44% 30.22 in 10.0 mi Calm Calm - N/A   Clear
8:55 PM 6.8 °F - -9.4 °F 48% 30.23 in 10.0 mi Calm Calm - N/A   Clear
9:15 PM 6.8 °F - -7.6 °F 52% 30.23 in 10.0 mi Calm Calm - N/A   Clear
9:35 PM 6.8 °F - -7.6 °F 52% 30.23 in 10.0 mi Calm Calm - N/A   Clear
9:55 PM 5.0 °F - -7.6 °F 56% 30.23 in 10.0 mi Calm Calm - N/A   Clear
10:15 PM 3.2 °F - -7.6 °F 61% 30.23 in 10.0 mi Calm Calm - N/A   Clear
10:35 PM 3.2 °F - -9.4 °F 56% 30.24 in 10.0 mi Calm Calm - N/A   Clear
10:55 PM 3.2 °F - -9.4 °F 56% 30.24 in 10.0 mi Calm Calm - N/A   Clear
11:15 PM 3.2 °F -4.2 °F -9.4 °F 56% 30.24 in 10.0 mi WSW 3.5 mph - N/A   Clear
11:35 PM 1.4 °F - -9.4 °F 61% 30.24 in 10.0 mi Calm Calm - N/A   Clear
11:55 PM 1.4 °F - -9.4 °F 61% 30.24 in 10.0 mi Calm Calm - N/A   Clear